owner,sensor,date,latitude,longitude,vertical_datum,wind_speed,wind_to_direction,wind_speed_of_gust,qcFlag 
DISL,ioos:station:DISL:DISL:1,2015-08-01T00:00:00Z,30.2513,-88.0778,9.68,2.62,38.45,-9999.0,'1111122,1111122,1111122' 
DISL,ioos:station:DISL:DISL:1,2015-08-01T00:30:00Z,30.2513,-88.0778,9.68,5.0,52.21,-9999.0,'1111122,1111122,1111122' 
DISL,ioos:station:DISL:DISL:1,2015-08-01T01:00:00Z,30.2513,-88.0778,9.68,4.26,46.69,-9999.0,'1111122,1111122,1111122' 
DISL,ioos:station:DISL:DISL:1,2015-08-01T01:30:00Z,30.2513,-88.0778,9.68,4.13,28.21,-9999.0,'1111122,1111122,1111122' 
DISL,ioos:station:DISL:DISL:1,2015-08-01T02:00:00Z,30.2513,-88.0778,9.68,5.01,42.93,-9999.0,'1111122,1111122,1111122' 
DISL,ioos:station:DISL:DISL:1,2015-08-01T02:30:00Z,30.2513,-88.0778,9.68,3.81,32.4,-9999.0,'1111122,1111122,1111122' 
DISL,ioos:station:DISL:DISL:1,2015-08-01T03:00:00Z,30.2513,-88.0778,9.68,3.73,36.48,-9999.0,'1111122,1111122,1111122' 
DISL,ioos:station:DISL:DISL:1,2015-08-01T03:30:00Z,30.2513,-88.0778,9.68,4.05,30.21,-9999.0,'1111122,1111122,1111122' 
DISL,ioos:station:DISL:DISL:1,2015-08-01T04:00:00Z,30.2513,-88.0778,9.68,3.17,35.58,-9999.0,'1111122,1111122,1111122' 
DISL,ioos:station:DISL:DISL:1,2015-08-01T04:30:00Z,30.2513,-88.0778,9.68,3.24,22.96,-9999.0,'1111122,1111122,1111122' 
DISL,ioos:station:DISL:DISL:1,2015-08-01T05:00:00Z,30.2513,-88.0778,9.68,3.68,6.056,-9999.0,'1111122,1111122,1111122' 
DISL,ioos:station:DISL:DISL:1,2015-08-01T05:30:00Z,30.2513,-88.0778,9.68,4.5,14.28,-9999.0,'1111122,1111122,1111122' 
DISL,ioos:station:DISL:DISL:1,2015-08-01T06:00:00Z,30.2513,-88.0778,9.68,6.53,0.043,-9999.0,'1111122,1111122,1111122' 
DISL,ioos:station:DISL:DISL:1,2015-08-01T06:30:00Z,30.2513,-88.0778,9.68,5.6,347.9,-9999.0,'1111122,1111122,1111122' 
DISL,ioos:station:DISL:DISL:1,2015-08-01T07:00:00Z,30.2513,-88.0778,9.68,6.34,4.629,-9999.0,'1111122,1111122,1111122' 
DISL,ioos:station:DISL:DISL:1,2015-08-01T07:30:00Z,30.2513,-88.0778,9.68,6.69,11.25,-9999.0,'1111122,1111122,1111122' 
DISL,ioos:station:DISL:DISL:1,2015-08-01T08:00:00Z,30.2513,-88.0778,9.68,7.13,3.931,-9999.0,'1111122,1111122,1111122' 
DISL,ioos:station:DISL:DISL:1,2015-08-01T08:30:00Z,30.2513,-88.0778,9.68,6.46,8.38,-9999.0,'1111122,1111122,1111122' 
DISL,ioos:station:DISL:DISL:1,2015-08-01T09:00:00Z,30.2513,-88.0778,9.68,6.2,16.06,-9999.0,'1111122,1111122,1111122' 
DISL,ioos:station:DISL:DISL:1,2015-08-01T09:30:00Z,30.2513,-88.0778,9.68,5.64,24.07,-9999.0,'1111122,1111122,1111122' 
DISL,ioos:station:DISL:DISL:1,2015-08-01T10:00:00Z,30.2513,-88.0778,9.68,5.74,26.77,-9999.0,'1111122,1111122,1111122' 
DISL,ioos:station:DISL:DISL:1,2015-08-01T10:30:00Z,30.2513,-88.0778,9.68,5.93,24.23,-9999.0,'1111122,1111122,1111122' 
DISL,ioos:station:DISL:DISL:1,2015-08-01T11:00:00Z,30.2513,-88.0778,9.68,5.25,34.79,-9999.0,'1111122,1111122,1111122' 
DISL,ioos:station:DISL:DISL:1,2015-08-01T11:30:00Z,30.2513,-88.0778,9.68,5.89,28.04,-9999.0,'1111122,1111122,1111122' 
DISL,ioos:station:DISL:DISL:1,2015-08-01T12:00:00Z,30.2513,-88.0778,9.68,6.04,25.67,-9999.0,'1111122,1111122,1111122' 
DISL,ioos:station:DISL:DISL:1,2015-08-01T12:30:00Z,30.2513,-88.0778,9.68,6.96,24.13,-9999.0,'1111122,1111122,1111122' 
DISL,ioos:station:DISL:DISL:1,2015-08-01T13:00:00Z,30.2513,-88.0778,9.68,7.35,21.79,-9999.0,'1111122,1111122,1111122' 
DISL,ioos:station:DISL:DISL:1,2015-08-01T13:30:00Z,30.2513,-88.0778,9.68,7.79,23.14,-9999.0,'1111122,1111122,1111122' 
DISL,ioos:station:DISL:DISL:1,2015-08-01T14:00:00Z,30.2513,-88.0778,9.68,8.49,20.51,-9999.0,'1111122,1111122,1111122' 
DISL,ioos:station:DISL:DISL:1,2015-08-01T14:30:00Z,30.2513,-88.0778,9.68,6.85,18.48,-9999.0,'1111122,1111122,1111122' 
DISL,ioos:station:DISL:DISL:1,2015-08-01T15:00:00Z,30.2513,-88.0778,9.68,5.71,27.98,-9999.0,'1111122,1111122,1111122' 
DISL,ioos:station:DISL:DISL:1,2015-08-01T15:30:00Z,30.2513,-88.0778,9.68,5.15,0.762,-9999.0,'1111122,1111122,1111122' 
DISL,ioos:station:DISL:DISL:1,2015-08-01T16:00:00Z,30.2513,-88.0778,9.68,5.45,13.05,-9999.0,'1111122,1111122,1111122' 
DISL,ioos:station:DISL:DISL:1,2015-08-01T16:30:00Z,30.2513,-88.0778,9.68,4.76,12.33,-9999.0,'1111122,1111122,1111122' 
DISL,ioos:station:DISL:DISL:1,2015-08-01T17:00:00Z,30.2513,-88.0778,9.68,3.65,19.26,-9999.0,'1111122,1111122,1111122' 
DISL,ioos:station:DISL:DISL:1,2015-08-01T17:30:00Z,30.2513,-88.0778,9.68,2.54,7.798,-9999.0,'1111122,1111122,1111122' 
DISL,ioos:station:DISL:DISL:1,2015-08-01T18:00:00Z,30.2513,-88.0778,9.68,2.55,7.611,-9999.0,'1111122,1111122,1111122' 
DISL,ioos:station:DISL:DISL:1,2015-08-01T18:30:00Z,30.2513,-88.0778,9.68,2.41,347.0,-9999.0,'1111122,1111122,1111122' 
DISL,ioos:station:DISL:DISL:1,2015-08-01T19:00:00Z,30.2513,-88.0778,9.68,1.92,357.5,-9999.0,'1111122,1111122,1111122' 
DISL,ioos:station:DISL:DISL:1,2015-08-01T19:30:00Z,30.2513,-88.0778,9.68,1.42,343.9,-9999.0,'1111122,1111122,1111122' 
DISL,ioos:station:DISL:DISL:1,2015-08-01T20:00:00Z,30.2513,-88.0778,9.68,0.9,21.78,-9999.0,'1111122,1111122,1111122' 
DISL,ioos:station:DISL:DISL:1,2015-08-01T20:30:00Z,30.2513,-88.0778,9.68,1.7,117.6,-9999.0,'1111122,1111122,1111122' 
DISL,ioos:station:DISL:DISL:1,2015-08-01T21:00:00Z,30.2513,-88.0778,9.68,2.11,175.6,-9999.0,'1111122,1111122,1111122' 
DISL,ioos:station:DISL:DISL:1,2015-08-01T21:30:00Z,30.2513,-88.0778,9.68,2.48,160.1,-9999.0,'1111122,1111122,1111122' 
DISL,ioos:station:DISL:DISL:1,2015-08-01T22:00:00Z,30.2513,-88.0778,9.68,1.54,170.5,-9999.0,'1111122,1111122,1111122' 
DISL,ioos:station:DISL:DISL:1,2015-08-01T22:30:00Z,30.2513,-88.0778,9.68,1.89,207.7,-9999.0,'1111122,1111122,1111122' 
DISL,ioos:station:DISL:DISL:1,2015-08-01T23:00:00Z,30.2513,-88.0778,9.68,1.86,205.6,-9999.0,'1111122,1111122,1111122' 
DISL,ioos:station:DISL:DISL:1,2015-08-01T23:30:00Z,30.2513,-88.0778,9.68,2.08,220.7,-9999.0,'1111122,1111122,1111122' 
DISL,ioos:station:DISL:DISL:1,2015-08-02T00:00:00Z,30.2513,-88.0778,9.68,1.93,256.2,-9999.0,'1111122,1111122,1111122' 
DISL,ioos:station:DISL:DISL:1,2015-08-02T00:30:00Z,30.2513,-88.0778,9.68,2.28,263.1,-9999.0,'1111122,1111122,1111122' 
DISL,ioos:station:DISL:DISL:1,2015-08-02T01:00:00Z,30.2513,-88.0778,9.68,2.61,262.6,-9999.0,'1111122,1111122,1111122' 
DISL,ioos:station:DISL:DISL:1,2015-08-02T01:30:00Z,30.2513,-88.0778,9.68,2.7,276.4,-9999.0,'1111122,1111122,1111122' 
DISL,ioos:station:DISL:DISL:1,2015-08-02T02:00:00Z,30.2513,-88.0778,9.68,2.01,271.5,-9999.0,'1111122,1111122,1111122' 
DISL,ioos:station:DISL:DISL:1,2015-08-02T02:30:00Z,30.2513,-88.0778,9.68,3.69,327.6,-9999.0,'1111122,1111122,1111122' 
DISL,ioos:station:DISL:DISL:1,2015-08-02T03:00:00Z,30.2513,-88.0778,9.68,3.59,356.8,-9999.0,'1111122,1111122,1111122' 
DISL,ioos:station:DISL:DISL:1,2015-08-02T03:30:00Z,30.2513,-88.0778,9.68,4.14,0.752,-9999.0,'1111122,1111122,1111122' 
DISL,ioos:station:DISL:DISL:1,2015-08-02T04:00:00Z,30.2513,-88.0778,9.68,3.88,345.6,-9999.0,'1111122,1111122,1111122' 
DISL,ioos:station:DISL:DISL:1,2015-08-02T04:30:00Z,30.2513,-88.0778,9.68,3.74,338.9,-9999.0,'1111122,1111122,1111122' 
DISL,ioos:station:DISL:DISL:1,2015-08-02T05:00:00Z,30.2513,-88.0778,9.68,3.3,348.6,-9999.0,'1111122,1111122,1111122' 
DISL,ioos:station:DISL:DISL:1,2015-08-02T05:30:00Z,30.2513,-88.0778,9.68,3.45,340.2,-9999.0,'1111122,1111122,1111122' 
DISL,ioos:station:DISL:DISL:1,2015-08-02T06:00:00Z,30.2513,-88.0778,9.68,3.87,345.2,-9999.0,'1111122,1111122,1111122' 
DISL,ioos:station:DISL:DISL:1,2015-08-02T06:30:00Z,30.2513,-88.0778,9.68,3.47,352.0,-9999.0,'1111122,1111122,1111122' 
DISL,ioos:station:DISL:DISL:1,2015-08-02T07:00:00Z,30.2513,-88.0778,9.68,3.39,354.6,-9999.0,'1111122,1111122,1111122' 
DISL,ioos:station:DISL:DISL:1,2015-08-02T07:30:00Z,30.2513,-88.0778,9.68,3.99,3.287,-9999.0,'1111122,1111122,1111122' 
DISL,ioos:station:DISL:DISL:1,2015-08-02T08:00:00Z,30.2513,-88.0778,9.68,3.32,335.5,-9999.0,'1111122,1111122,1111122' 
DISL,ioos:station:DISL:DISL:1,2015-08-02T08:30:00Z,30.2513,-88.0778,9.68,4.02,334.6,-9999.0,'1111122,1111122,1111122' 
DISL,ioos:station:DISL:DISL:1,2015-08-02T09:00:00Z,30.2513,-88.0778,9.68,4.03,4.375,-9999.0,'1111122,1111122,1111122' 
DISL,ioos:station:DISL:DISL:1,2015-08-02T09:30:00Z,30.2513,-88.0778,9.68,4.3,2.182,-9999.0,'1111122,1111122,1111122' 
DISL,ioos:station:DISL:DISL:1,2015-08-02T10:00:00Z,30.2513,-88.0778,9.68,3.89,6.963,-9999.0,'1111122,1111122,1111122' 
DISL,ioos:station:DISL:DISL:1,2015-08-02T10:30:00Z,30.2513,-88.0778,9.68,3.26,17.07,-9999.0,'1111122,1111122,1111122' 
DISL,ioos:station:DISL:DISL:1,2015-08-02T11:00:00Z,30.2513,-88.0778,9.68,2.6,4.917,-9999.0,'1111122,1111122,1111122' 
DISL,ioos:station:DISL:DISL:1,2015-08-02T11:30:00Z,30.2513,-88.0778,9.68,3.48,344.6,-9999.0,'1111122,1111122,1111122' 
DISL,ioos:station:DISL:DISL:1,2015-08-02T12:00:00Z,30.2513,-88.0778,9.68,3.6,341.3,-9999.0,'1111122,1111122,1111122' 
DISL,ioos:station:DISL:DISL:1,2015-08-02T12:30:00Z,30.2513,-88.0778,9.68,3.74,359.4,-9999.0,'1111122,1111122,1111122' 
DISL,ioos:station:DISL:DISL:1,2015-08-02T13:00:00Z,30.2513,-88.0778,9.68,5.15,40.01,-9999.0,'1111122,1111122,1111122' 
DISL,ioos:station:DISL:DISL:1,2015-08-02T13:30:00Z,30.2513,-88.0778,9.68,4.07,27.33,-9999.0,'1111122,1111122,1111122' 
DISL,ioos:station:DISL:DISL:1,2015-08-02T14:00:00Z,30.2513,-88.0778,9.68,3.44,27.62,-9999.0,'1111122,1111122,1111122' 
DISL,ioos:station:DISL:DISL:1,2015-08-02T14:30:00Z,30.2513,-88.0778,9.68,3.73,8.53,-9999.0,'1111122,1111122,1111122' 
DISL,ioos:station:DISL:DISL:1,2015-08-02T15:00:00Z,30.2513,-88.0778,9.68,4.25,3.246,-9999.0,'1111122,1111122,1111122' 
DISL,ioos:station:DISL:DISL:1,2015-08-02T15:30:00Z,30.2513,-88.0778,9.68,4.76,0.345,-9999.0,'1111122,1111122,1111122' 
DISL,ioos:station:DISL:DISL:1,2015-08-02T16:00:00Z,30.2513,-88.0778,9.68,4.56,12.96,-9999.0,'1111122,1111122,1111122' 
DISL,ioos:station:DISL:DISL:1,2015-08-02T16:30:00Z,30.2513,-88.0778,9.68,3.73,7.637,-9999.0,'1111122,1111122,1111122' 
DISL,ioos:station:DISL:DISL:1,2015-08-02T17:00:00Z,30.2513,-88.0778,9.68,2.78,3.705,-9999.0,'1111122,1111122,1111122' 
DISL,ioos:station:DISL:DISL:1,2015-08-02T17:30:00Z,30.2513,-88.0778,9.68,2.41,359.8,-9999.0,'1111122,1111122,1111122' 
DISL,ioos:station:DISL:DISL:1,2015-08-02T18:00:00Z,30.2513,-88.0778,9.68,1.63,349.0,-9999.0,'1111122,1111122,1111122' 
DISL,ioos:station:DISL:DISL:1,2015-08-02T18:30:00Z,30.2513,-88.0778,9.68,1.08,338.7,-9999.0,'1111122,1111122,1111122' 
DISL,ioos:station:DISL:DISL:1,2015-08-02T19:00:00Z,30.2513,-88.0778,9.68,0.86,358.2,-9999.0,'1111122,1111122,1111122' 
DISL,ioos:station:DISL:DISL:1,2015-08-02T19:30:00Z,30.2513,-88.0778,9.68,2.79,168.4,-9999.0,'1111122,1111122,1111122' 
DISL,ioos:station:DISL:DISL:1,2015-08-02T20:00:00Z,30.2513,-88.0778,9.68,2.68,188.2,-9999.0,'1111122,1111122,1111122' 
DISL,ioos:station:DISL:DISL:1,2015-08-02T20:30:00Z,30.2513,-88.0778,9.68,2.14,189.4,-9999.0,'1111122,1111122,1111122' 
DISL,ioos:station:DISL:DISL:1,2015-08-02T21:00:00Z,30.2513,-88.0778,9.68,3.0,226.5,-9999.0,'1111122,1111122,1111122' 
DISL,ioos:station:DISL:DISL:1,2015-08-02T21:30:00Z,30.2513,-88.0778,9.68,3.12,221.1,-9999.0,'1111122,1111122,1111122' 
DISL,ioos:station:DISL:DISL:1,2015-08-02T22:00:00Z,30.2513,-88.0778,9.68,2.68,214.1,-9999.0,'1111122,1111122,1111122' 
DISL,ioos:station:DISL:DISL:1,2015-08-02T22:30:00Z,30.2513,-88.0778,9.68,2.32,221.0,-9999.0,'1111122,1111122,1111122' 
DISL,ioos:station:DISL:DISL:1,2015-08-02T23:00:00Z,30.2513,-88.0778,9.68,3.04,216.7,-9999.0,'1111122,1111122,1111122' 
DISL,ioos:station:DISL:DISL:1,2015-08-02T23:30:00Z,30.2513,-88.0778,9.68,2.84,206.2,-9999.0,'1111122,1111122,1111122' 
DISL,ioos:station:DISL:DISL:1,2015-08-03T00:00:00Z,30.2513,-88.0778,9.68,2.36,211.5,-9999.0,'1111122,1111122,1111122' 
DISL,ioos:station:DISL:DISL:1,2015-08-03T00:30:00Z,30.2513,-88.0778,9.68,2.42,231.4,-9999.0,'1111122,1111122,1111122' 
DISL,ioos:station:DISL:DISL:1,2015-08-03T01:00:00Z,30.2513,-88.0778,9.68,1.97,243.5,-9999.0,'1111122,1111122,1111122' 
DISL,ioos:station:DISL:DISL:1,2015-08-03T01:30:00Z,30.2513,-88.0778,9.68,2.11,246.5,-9999.0,'1111122,1111122,1111122' 
DISL,ioos:station:DISL:DISL:1,2015-08-03T02:00:00Z,30.2513,-88.0778,9.68,2.26,247.9,-9999.0,'1111122,1111122,1111122' 
DISL,ioos:station:DISL:DISL:1,2015-08-03T02:30:00Z,30.2513,-88.0778,9.68,2.22,253.9,-9999.0,'1111122,1111122,1111122' 
DISL,ioos:station:DISL:DISL:1,2015-08-03T03:00:00Z,30.2513,-88.0778,9.68,2.56,247.1,-9999.0,'1111122,1111122,1111122' 
DISL,ioos:station:DISL:DISL:1,2015-08-03T03:30:00Z,30.2513,-88.0778,9.68,2.24,262.1,-9999.0,'1111122,1111122,1111122' 
DISL,ioos:station:DISL:DISL:1,2015-08-03T04:00:00Z,30.2513,-88.0778,9.68,2.06,261.2,-9999.0,'1111122,1111122,1111122' 
DISL,ioos:station:DISL:DISL:1,2015-08-03T04:30:00Z,30.2513,-88.0778,9.68,2.15,252.9,-9999.0,'1111122,1111122,1111122' 
DISL,ioos:station:DISL:DISL:1,2015-08-03T05:00:00Z,30.2513,-88.0778,9.68,2.3,255.1,-9999.0,'1111122,1111122,1111122' 
DISL,ioos:station:DISL:DISL:1,2015-08-03T05:30:00Z,30.2513,-88.0778,9.68,1.83,254.9,-9999.0,'1111122,1111122,1111122' 
DISL,ioos:station:DISL:DISL:1,2015-08-03T06:00:00Z,30.2513,-88.0778,9.68,2.69,264.4,-9999.0,'1111122,1111122,1111122' 
DISL,ioos:station:DISL:DISL:1,2015-08-03T06:30:00Z,30.2513,-88.0778,9.68,2.31,275.7,-9999.0,'1111122,1111122,1111122' 
DISL,ioos:station:DISL:DISL:1,2015-08-03T07:00:00Z,30.2513,-88.0778,9.68,2.65,268.4,-9999.0,'1111122,1111122,1111122' 
DISL,ioos:station:DISL:DISL:1,2015-08-03T07:30:00Z,30.2513,-88.0778,9.68,2.03,260.2,-9999.0,'1111122,1111122,1111122' 
DISL,ioos:station:DISL:DISL:1,2015-08-03T08:00:00Z,30.2513,-88.0778,9.68,3.14,279.3,-9999.0,'1111122,1111122,1111122' 
DISL,ioos:station:DISL:DISL:1,2015-08-03T08:30:00Z,30.2513,-88.0778,9.68,2.81,276.8,-9999.0,'1111122,1111122,1111122' 
DISL,ioos:station:DISL:DISL:1,2015-08-03T09:00:00Z,30.2513,-88.0778,9.68,4.34,291.6,-9999.0,'1111122,1111122,1111122' 
DISL,ioos:station:DISL:DISL:1,2015-08-03T09:30:00Z,30.2513,-88.0778,9.68,4.94,298.4,-9999.0,'1111122,1111122,1111122' 
DISL,ioos:station:DISL:DISL:1,2015-08-03T10:00:00Z,30.2513,-88.0778,9.68,2.83,282.6,-9999.0,'1111122,1111122,1111122' 
DISL,ioos:station:DISL:DISL:1,2015-08-03T10:30:00Z,30.2513,-88.0778,9.68,4.08,307.8,-9999.0,'1111122,1111122,1111122' 
DISL,ioos:station:DISL:DISL:1,2015-08-03T11:00:00Z,30.2513,-88.0778,9.68,4.31,300.1,-9999.0,'1111122,1111122,1111122' 
DISL,ioos:station:DISL:DISL:1,2015-08-03T11:30:00Z,30.2513,-88.0778,9.68,4.39,301.9,-9999.0,'1111122,1111122,1111122' 
DISL,ioos:station:DISL:DISL:1,2015-08-03T12:00:00Z,30.2513,-88.0778,9.68,4.4,297.5,-9999.0,'1111122,1111122,1111122' 
DISL,ioos:station:DISL:DISL:1,2015-08-03T12:30:00Z,30.2513,-88.0778,9.68,4.12,304.4,-9999.0,'1111122,1111122,1111122' 
DISL,ioos:station:DISL:DISL:1,2015-08-03T13:00:00Z,30.2513,-88.0778,9.68,4.23,340.4,-9999.0,'1111122,1111122,1111122' 
DISL,ioos:station:DISL:DISL:1,2015-08-03T13:30:00Z,30.2513,-88.0778,9.68,3.82,332.8,-9999.0,'1111122,1111122,1111122' 
DISL,ioos:station:DISL:DISL:1,2015-08-03T14:00:00Z,30.2513,-88.0778,9.68,4.1,353.5,-9999.0,'1111122,1111122,1111122' 
DISL,ioos:station:DISL:DISL:1,2015-08-03T14:30:00Z,30.2513,-88.0778,9.68,4.84,353.7,-9999.0,'1111122,1111122,1111122' 
DISL,ioos:station:DISL:DISL:1,2015-08-03T15:00:00Z,30.2513,-88.0778,9.68,4.06,12.81,-9999.0,'1111122,1111122,1111122' 
DISL,ioos:station:DISL:DISL:1,2015-08-03T15:30:00Z,30.2513,-88.0778,9.68,4.04,20.26,-9999.0,'1111122,1111122,1111122' 
DISL,ioos:station:DISL:DISL:1,2015-08-03T16:00:00Z,30.2513,-88.0778,9.68,3.19,19.28,-9999.0,'1111122,1111122,1111122' 
DISL,ioos:station:DISL:DISL:1,2015-08-03T16:30:00Z,30.2513,-88.0778,9.68,2.17,37.0,-9999.0,'1111122,1111122,1111122' 
DISL,ioos:station:DISL:DISL:1,2015-08-03T17:00:00Z,30.2513,-88.0778,9.68,0.88,41.13,-9999.0,'1111122,1111122,1111122' 
DISL,ioos:station:DISL:DISL:1,2015-08-03T17:30:00Z,30.2513,-88.0778,9.68,0.82,84.7,-9999.0,'1111122,1111122,1111122' 
DISL,ioos:station:DISL:DISL:1,2015-08-03T18:00:00Z,30.2513,-88.0778,9.68,1.96,128.2,-9999.0,'1111122,1111122,1111122' 
DISL,ioos:station:DISL:DISL:1,2015-08-03T18:30:00Z,30.2513,-88.0778,9.68,2.74,173.6,-9999.0,'1111122,1111122,1111122' 
DISL,ioos:station:DISL:DISL:1,2015-08-03T19:00:00Z,30.2513,-88.0778,9.68,2.88,194.2,-9999.0,'1111122,1111122,1111122' 
DISL,ioos:station:DISL:DISL:1,2015-08-03T19:30:00Z,30.2513,-88.0778,9.68,3.7,200.8,-9999.0,'1111122,1111122,1111122' 
DISL,ioos:station:DISL:DISL:1,2015-08-03T20:00:00Z,30.2513,-88.0778,9.68,4.17,209.3,-9999.0,'1111122,1111122,1111122' 
DISL,ioos:station:DISL:DISL:1,2015-08-03T20:30:00Z,30.2513,-88.0778,9.68,3.98,223.3,-9999.0,'1111122,1111122,1111122' 
DISL,ioos:station:DISL:DISL:1,2015-08-03T21:00:00Z,30.2513,-88.0778,9.68,4.54,222.4,-9999.0,'1111122,1111122,1111122' 
DISL,ioos:station:DISL:DISL:1,2015-08-03T21:30:00Z,30.2513,-88.0778,9.68,3.87,220.1,-9999.0,'1111122,1111122,1111122' 
DISL,ioos:station:DISL:DISL:1,2015-08-03T22:00:00Z,30.2513,-88.0778,9.68,3.84,237.3,-9999.0,'1111122,1111122,1111122' 
DISL,ioos:station:DISL:DISL:1,2015-08-03T22:30:00Z,30.2513,-88.0778,9.68,4.18,234.5,-9999.0,'1111122,1111122,1111122' 
DISL,ioos:station:DISL:DISL:1,2015-08-03T23:00:00Z,30.2513,-88.0778,9.68,2.58,239.9,-9999.0,'1111122,1111122,1111122' 
DISL,ioos:station:DISL:DISL:1,2015-08-03T23:30:00Z,30.2513,-88.0778,9.68,3.45,244.7,-9999.0,'1111122,1111122,1111122' 
DISL,ioos:station:DISL:DISL:1,2015-08-04T00:00:00Z,30.2513,-88.0778,9.68,2.61,232.6,-9999.0,'1111122,1111122,1111122' 
DISL,ioos:station:DISL:DISL:1,2015-08-04T00:30:00Z,30.2513,-88.0778,9.68,2.57,245.7,-9999.0,'1111122,1111122,1111122' 
DISL,ioos:station:DISL:DISL:1,2015-08-04T01:00:00Z,30.2513,-88.0778,9.68,1.69,256.9,-9999.0,'1111122,1111122,1111122' 
DISL,ioos:station:DISL:DISL:1,2015-08-04T01:30:00Z,30.2513,-88.0778,9.68,1.61,250.6,-9999.0,'1111122,1111122,1111122' 
DISL,ioos:station:DISL:DISL:1,2015-08-04T02:00:00Z,30.2513,-88.0778,9.68,1.68,254.7,-9999.0,'1111122,1111122,1111122' 
DISL,ioos:station:DISL:DISL:1,2015-08-04T02:30:00Z,30.2513,-88.0778,9.68,1.85,258.8,-9999.0,'1111122,1111122,1111122' 
DISL,ioos:station:DISL:DISL:1,2015-08-04T03:00:00Z,30.2513,-88.0778,9.68,1.5,268.0,-9999.0,'1111122,1111122,1111122' 
DISL,ioos:station:DISL:DISL:1,2015-08-04T03:30:00Z,30.2513,-88.0778,9.68,1.61,270.6,-9999.0,'1111122,1111122,1111122' 
DISL,ioos:station:DISL:DISL:1,2015-08-04T04:00:00Z,30.2513,-88.0778,9.68,1.5,266.8,-9999.0,'1111122,1111122,1111122' 
DISL,ioos:station:DISL:DISL:1,2015-08-04T04:30:00Z,30.2513,-88.0778,9.68,1.3,261.2,-9999.0,'1111122,1111122,1111122' 
DISL,ioos:station:DISL:DISL:1,2015-08-04T05:00:00Z,30.2513,-88.0778,9.68,1.31,258.6,-9999.0,'1111122,1111122,1111122' 
DISL,ioos:station:DISL:DISL:1,2015-08-04T05:30:00Z,30.2513,-88.0778,9.68,1.53,255.6,-9999.0,'1111122,1111122,1111122' 
DISL,ioos:station:DISL:DISL:1,2015-08-04T06:00:00Z,30.2513,-88.0778,9.68,1.73,253.1,-9999.0,'1111122,1111122,1111122' 
DISL,ioos:station:DISL:DISL:1,2015-08-04T06:30:00Z,30.2513,-88.0778,9.68,1.49,253.3,-9999.0,'1111122,1111122,1111122' 
DISL,ioos:station:DISL:DISL:1,2015-08-04T07:00:00Z,30.2513,-88.0778,9.68,1.91,261.7,-9999.0,'1111122,1111122,1111122' 
DISL,ioos:station:DISL:DISL:1,2015-08-04T07:30:00Z,30.2513,-88.0778,9.68,1.76,272.7,-9999.0,'1111122,1111122,1111122' 
DISL,ioos:station:DISL:DISL:1,2015-08-04T08:00:00Z,30.2513,-88.0778,9.68,2.12,263.1,-9999.0,'1111122,1111122,1111122' 
DISL,ioos:station:DISL:DISL:1,2015-08-04T08:30:00Z,30.2513,-88.0778,9.68,2.04,263.0,-9999.0,'1111122,1111122,1111122' 
DISL,ioos:station:DISL:DISL:1,2015-08-04T09:00:00Z,30.2513,-88.0778,9.68,1.74,257.1,-9999.0,'1111122,1111122,1111122' 
DISL,ioos:station:DISL:DISL:1,2015-08-04T09:30:00Z,30.2513,-88.0778,9.68,1.62,258.8,-9999.0,'1111122,1111122,1111122' 
DISL,ioos:station:DISL:DISL:1,2015-08-04T10:00:00Z,30.2513,-88.0778,9.68,1.9,259.1,-9999.0,'1111122,1111122,1111122' 
DISL,ioos:station:DISL:DISL:1,2015-08-04T10:30:00Z,30.2513,-88.0778,9.68,1.76,258.9,-9999.0,'1111122,1111122,1111122' 
DISL,ioos:station:DISL:DISL:1,2015-08-04T11:00:00Z,30.2513,-88.0778,9.68,2.45,300.6,-9999.0,'1111122,1111122,1111122' 
DISL,ioos:station:DISL:DISL:1,2015-08-04T11:30:00Z,30.2513,-88.0778,9.68,2.72,308.1,-9999.0,'1111122,1111122,1111122' 
DISL,ioos:station:DISL:DISL:1,2015-08-04T12:00:00Z,30.2513,-88.0778,9.68,2.6,303.8,-9999.0,'1111122,1111122,1111122' 
DISL,ioos:station:DISL:DISL:1,2015-08-04T12:30:00Z,30.2513,-88.0778,9.68,2.6,303.8,-9999.0,'1111122,1111122,1111122' 
DISL,ioos:station:DISL:DISL:1,2015-08-04T13:00:00Z,30.2513,-88.0778,9.68,3.11,315.5,-9999.0,'1111122,1111122,1111122' 
DISL,ioos:station:DISL:DISL:1,2015-08-04T13:30:00Z,30.2513,-88.0778,9.68,2.79,314.9,-9999.0,'1111122,1111122,1111122' 
DISL,ioos:station:DISL:DISL:1,2015-08-04T14:00:00Z,30.2513,-88.0778,9.68,2.45,326.9,-9999.0,'1111122,1111122,1111122' 
DISL,ioos:station:DISL:DISL:1,2015-08-04T14:30:00Z,30.2513,-88.0778,9.68,1.99,343.9,-9999.0,'1111122,1111122,1111122' 
DISL,ioos:station:DISL:DISL:1,2015-08-04T15:00:00Z,30.2513,-88.0778,9.68,2.83,311.9,-9999.0,'1111122,1111122,1111122' 
DISL,ioos:station:DISL:DISL:1,2015-08-04T15:30:00Z,30.2513,-88.0778,9.68,1.63,318.0,-9999.0,'1111122,1111122,1111122' 
DISL,ioos:station:DISL:DISL:1,2015-08-04T16:00:00Z,30.2513,-88.0778,9.68,1.38,302.6,-9999.0,'1111122,1111122,1111122' 
DISL,ioos:station:DISL:DISL:1,2015-08-04T16:30:00Z,30.2513,-88.0778,9.68,0.9,309.7,-9999.0,'1111122,1111122,1111122' 
DISL,ioos:station:DISL:DISL:1,2015-08-04T17:00:00Z,30.2513,-88.0778,9.68,1.46,178.1,-9999.0,'1111122,1111122,1111122' 
DISL,ioos:station:DISL:DISL:1,2015-08-04T17:30:00Z,30.2513,-88.0778,9.68,2.1,201.1,-9999.0,'1111122,1111122,1111122' 
DISL,ioos:station:DISL:DISL:1,2015-08-04T18:00:00Z,30.2513,-88.0778,9.68,2.89,201.1,-9999.0,'1111122,1111122,1111122' 
DISL,ioos:station:DISL:DISL:1,2015-08-04T18:30:00Z,30.2513,-88.0778,9.68,4.12,239.0,-9999.0,'1111122,1111122,1111122' 
DISL,ioos:station:DISL:DISL:1,2015-08-04T19:00:00Z,30.2513,-88.0778,9.68,2.89,222.2,-9999.0,'1111122,1111122,1111122' 
DISL,ioos:station:DISL:DISL:1,2015-08-04T19:30:00Z,30.2513,-88.0778,9.68,3.43,222.2,-9999.0,'1111122,1111122,1111122' 
DISL,ioos:station:DISL:DISL:1,2015-08-04T20:00:00Z,30.2513,-88.0778,9.68,3.9,232.9,-9999.0,'1111122,1111122,1111122' 
DISL,ioos:station:DISL:DISL:1,2015-08-04T20:30:00Z,30.2513,-88.0778,9.68,3.12,223.4,-9999.0,'1111122,1111122,1111122' 
DISL,ioos:station:DISL:DISL:1,2015-08-04T21:00:00Z,30.2513,-88.0778,9.68,3.54,201.7,-9999.0,'1111122,1111122,1111122' 
DISL,ioos:station:DISL:DISL:1,2015-08-04T21:30:00Z,30.2513,-88.0778,9.68,3.28,219.6,-9999.0,'1111122,1111122,1111122' 
DISL,ioos:station:DISL:DISL:1,2015-08-04T22:00:00Z,30.2513,-88.0778,9.68,2.79,223.6,-9999.0,'1111122,1111122,1111122' 
DISL,ioos:station:DISL:DISL:1,2015-08-04T22:30:00Z,30.2513,-88.0778,9.68,2.7,237.2,-9999.0,'1111122,1111122,1111122' 
DISL,ioos:station:DISL:DISL:1,2015-08-04T23:00:00Z,30.2513,-88.0778,9.68,2.61,236.7,-9999.0,'1111122,1111122,1111122' 
DISL,ioos:station:DISL:DISL:1,2015-08-04T23:30:00Z,30.2513,-88.0778,9.68,3.13,222.7,-9999.0,'1111122,1111122,1111122' 
DISL,ioos:station:DISL:DISL:1,2015-08-05T00:00:00Z,30.2513,-88.0778,9.68,3.41,201.2,-9999.0,'1111122,1111122,1111122' 
DISL,ioos:station:DISL:DISL:1,2015-08-05T00:30:00Z,30.2513,-88.0778,9.68,2.71,195.5,-9999.0,'1111122,1111122,1111122' 
DISL,ioos:station:DISL:DISL:1,2015-08-05T01:00:00Z,30.2513,-88.0778,9.68,2.71,189.4,-9999.0,'1111122,1111122,1111122' 
DISL,ioos:station:DISL:DISL:1,2015-08-05T01:30:00Z,30.2513,-88.0778,9.68,3.16,188.4,-9999.0,'1111122,1111122,1111122' 
DISL,ioos:station:DISL:DISL:1,2015-08-05T02:00:00Z,30.2513,-88.0778,9.68,3.22,190.3,-9999.0,'1111122,1111122,1111122' 
DISL,ioos:station:DISL:DISL:1,2015-08-05T02:30:00Z,30.2513,-88.0778,9.68,3.08,201.9,-9999.0,'1111122,1111122,1111122' 
DISL,ioos:station:DISL:DISL:1,2015-08-05T03:00:00Z,30.2513,-88.0778,9.68,2.66,205.3,-9999.0,'1111122,1111122,1111122' 
DISL,ioos:station:DISL:DISL:1,2015-08-05T03:30:00Z,30.2513,-88.0778,9.68,3.02,210.2,-9999.0,'1111122,1111122,1111122' 
DISL,ioos:station:DISL:DISL:1,2015-08-05T04:00:00Z,30.2513,-88.0778,9.68,2.47,205.0,-9999.0,'1111122,1111122,1111122' 